Tracking 28531 objects as of 26-Feb-2024
HD Live streaming from Space Station
objects crossing your sky now

STARLINK-2623

Track STARLINK-2623 now!
10-day predictions
STARLINK-2623 is classified as:


NORAD ID: 48368
Int'l Code: 2021-038R
Perigee: 553.2 km
Apogee: 555.5 km
Inclination: 53.1 °
Period: 95.6 minutes
Semi major axis: 6925 km
RCS: Unknown
Launch date: May 4, 2021
Source: United States (US)
Launch site: AIR FORCE EASTERN TEST RANGE (AFETR)
Your satellite tracking list
Your tracking list is empty




NASA's NSSDC Master Catalog

Two Line Element Set (TLE):
1 48368U 21038R   24056.79793768  .00000674  00000-0  64140-4 0  9992
2 48368  53.0544  86.8682 0001636  88.0520 272.0657 15.06399292155195
Source of the keplerian elements: AFSPC